Location: Hamayl? Da??
(36.7028°N, 30.1716°E)
Time: 00:08:11
(UTC+00:00)

Cosmos 2218 Rocket - Pass Details

Date: 04 August 2024
Orbit: 956 x 1005 km, 82.9° (Epoch: 18 September)

Event Time Altitude Azimuth Distance (km) Brightness Sun altitude
Rises 17:57:07 0° 194° (SSW) 3,629 6.8 -10.7°
Reaches altitude 10° 17:59:37 10° 197° (SSW) 2,691 6.2 -11.1°
Maximum altitude 18:05:43 64° 278° (W) 1,072 4.5 -12.1°
Drops below altitude 10° 18:11:56 10° 360° (N) 2,739 6.8 -13.2°
Sets 18:14:31 0° 4° (N) 3,699 7.5 -13.6°
